User: anonymous   Login
Location: Clinton NY
(43.0598°N, 75.3602°W)
Time: 20:35:32
(UTC-05:00)
Language:

Iridium 11 - Orbit

View from above orbital plane
View from above orbital plane
View from above satellite
View from above satellite

Ground track
Ground track

The orbit data is extracted from the following two-line orbital elements,

1 25578U 98074B   14330.42625743  .00000582  00000-0  20064-3 0  1205
2 25578 086.3953 285.9041 0002371 100.4219 049.5269 14.34217641843566
Epoch (UTC): 26 November 2014 10:13:48
Eccentricity: 0.0002371
inclination: 86.3953°
perigee height: 776 km
apogee height: 779 km
right ascension of ascending node: 285.9041°
argument of perigee: 100.4219°
revolutions per day: 14.34217641
mean anomaly at epoch: 49.5269°
orbit number at epoch: 84356

The dashed part of the orbit path shows where the satellite is in the earth's shadow,  

DLR